Tracking 29892 objects as of 21-Nov-2024
HD Live streaming from Space Station
objects crossing your sky now

DELTA 1 DEB

Track DELTA 1 DEB now!
10-day predictions


NORAD ID: 26861
Int'l Code: 1978-026HV
Perigee: 729.8 km
Apogee: 873.1 km
Inclination: 98.8 °
Period: 100.8 minutes
Semi major axis: 7172 km
RCS: 0.0164 m2 (small)
Launch date: March 5, 1978
Source: United States (US)
Launch site: AIR FORCE WESTERN TEST RANGE (AFWTR)

Note: This is SATELLITE DEBRIS
Your satellite tracking list
Your tracking list is empty




NASA's NSSDC Master Catalog

Two Line Element Set (TLE):
1 26861U 78026HV  24319.74990175  .00000668  00000-0  26631-3 0  9998
2 26861  98.7579 299.0708 0099927 238.6654 120.4718 14.29228103107907
Source of the keplerian elements: AFSPC